Simultaneous Nadir Overpasses (SNOs) Predictions

Prediction of SNOs over PacNW region [( 10.00, 139.50) to ( 22.70, 165.60)] between AQUA and NPP Satellites:

Table of predicted SNOs over PacNW region for the next 30.0 days since TLE Epoch: 12/3/2022
Index Date (AQUA) Time (AQUA) AQUA Lat,Lon Date (NPP) Time (NPP) NPP Lat,Lon Distance(km) Time Diff (sec)
1 12/09/2022 15:40:56 22.59, 153.89 12/09/2022 15:43:24 23.61, 149.51 462.25 148
2 12/12/2022 04:01:48 22.66, 141.78 12/12/2022 03:59:38 21.94, 138.08 389.25 130
3 12/20/2022 03:09:14 22.68, 154.98 12/20/2022 03:09:02 21.83, 150.77 443.65 12
